Overview Statistics Trail Chart Weather Telemetry Raw packets
 

This is the latest recevied weather packets stored in our database for station/object KC0OOO-WX. If no packets are shown the sender has not sent any weather packets the latest 10 day(s).

<< 22 23 24 25 26 27 28 >>
Time Temp. Humidity Pressure Rain* Wind** Luminosity Snow
1777484641 15° C 23% 1020.3 hPa 0 mm - - -
1777484041 15° C 24% 1020.3 hPa 0 mm - - -
1777483441 15° C 25% 1020.7 hPa 0 mm - - -
1777482841 15° C 24% 1020.7 hPa 0 mm - - -
1777482211 14.44° C 28% 1020.7 hPa 0 mm - - -
1777481611 13.33° C 26% 1020.7 hPa 0 mm - - -
1777481011 12.78° C 27% 1020.7 hPa 0 mm - - -
1777480411 12.78° C 28% 1020.7 hPa 0 mm - - -
1777479781 11.67° C 31% 1020.7 hPa 0 mm - - -
1777479181 11.11° C 33% 1020.7 hPa 0 mm - - -
1777478581 10.56° C 33% 1020.7 hPa 0 mm - - -
1777477951 10° C 37% 1020.7 hPa 0 mm - - -
1777477351 8.89° C 41% 1020.7 hPa 0 mm - - -
1777476721 7.78° C 44% 1021 hPa 0 mm - - -
1777476121 6.67° C 50% 1021 hPa 0 mm - - -
1777475521 5.56° C 49% 1021 hPa 0 mm - - -
1777474921 5° C 57% 1020.3 hPa 0 mm - - -
1777474321 4.44° C 56% 1020.3 hPa 0 mm - - -
1777420197 15° C 24% 1020.3 hPa 0 mm - - -
1777419597 15° C 21% 1020.3 hPa 0 mm - - -
1777418967 15° C 18% 1020.3 hPa 0 mm - - -
1777418337 15° C 18% 1020.3 hPa 0 mm - - -
1777417737 15.56° C 18% 1020.3 hPa 0 mm - - -
1777417107 16.11° C 16% 1020.7 hPa 0 mm - - -
1777412307 16.67° C 22% 1020.7 hPa 0 mm - - -

* Rain latest hour (hover to see other rain measurements)
** Current wind speed in m/s (hover to see current wind gust speed)